Find Starlink 31255

NORAD ID: 58893 Int'l Des: 2024-020 Owner: SPXS Country: US Constellation: starlink operational
LEOCIRCULAR

当前视图

正在加载3D地球...

About Starlink 31255

Starlink 31255 (NORAD 58893) is a starlink constellation satellite (v2 mini) launched Jan 29, 2024 by SPXS of US. It operates in LEO, CIRCULAR orbit with a mass of 730.00 kg.

关于 Starlink 31255

正在加载描述...

即将过境

Passes for default location (London). Set your location on the main map for personalized predictions.

高度历史

Loading altitude history...

两行轨道根数

1 58893U 24020T 26173.34308914 .00000277 00000-0 19343-4 0 9992
2 58893 53.1597 194.9261 0001011 82.9736 277.1382 15.34392424134112
Epoch: Jun 22, 2026 • Age: 26 hours

当前状态

高度 481.8 km
速度 7.62 km/s
星下点 -52.90°S, 22.42°E
发射日期 Jan 29, 2024
运行时间 2.3 years
类型 internet

技术详情

分类 Payload
质量 730.00 kg
干质量 700.00 kg
总质量 730.00 kg
长度 0.30 m
直径 4.10 m
跨度 29.00 m
形状 Box + pan
制造商 SPXS
平台类型 Starlink V2M
阶段状态 In Orbit
所有者/国家 SPXS/US

Most Searched